SVA902 OPKC-OPSD

Flight info

Callsign SVA902
Flight time N/A
Altitude 35000
Route BADUL1D/25L BADUL B466 NH Z301 RN J186 KAPMI J154 BUNGI J186 DELDA DCT BIREB
Aircraft A320/M-SDE3FGHIRWY/LB1

Departure

Time N/A
Airport Jinnah International Airport (OPKC)

Arrival

Time 2026-04-25 19:15
Airport Skardu International Airport (OPSD)
Time Latitude Longitude Altitude Speed Heading
2026-04-25 17:49 27.99578 69.43213 34574 ft 452 kts 26°
2026-04-25 17:49 28.02338 69.44937 34766 ft 454 kts 26°
2026-04-25 17:50 28.07926 69.48439 34856 ft 465 kts 26°
2026-04-25 17:50 28.13620 69.52001 34860 ft 469 kts 26°
2026-04-25 17:51 28.19323 69.55576 34856 ft 467 kts 26°
2026-04-25 17:51 28.25010 69.59148 34853 ft 467 kts 26°
2026-04-25 17:52 28.30699 69.62746 34855 ft 468 kts 26°
2026-04-25 17:52 28.36410 69.66293 34862 ft 468 kts 25°
2026-04-25 17:53 28.42145 69.69796 34862 ft 468 kts 25°
2026-04-25 17:53 28.47884 69.73304 34863 ft 468 kts 25°
2026-04-25 17:54 28.53645 69.76826 34858 ft 473 kts 25°
2026-04-25 17:54 28.59410 69.80365 34864 ft 475 kts 25°
2026-04-25 17:55 28.65221 69.83996 34870 ft 477 kts 25°
2026-04-25 17:55 28.71030 69.87652 34875 ft 477 kts 25°
2026-04-25 17:56 28.76837 69.91297 34886 ft 476 kts 25°
2026-04-25 17:56 28.82646 69.94932 34886 ft 476 kts 25°
2026-04-25 17:57 28.88448 69.98571 34909 ft 475 kts 25°
2026-04-25 17:57 28.93252 70.01594 34896 ft 474 kts 25°
2026-04-25 17:58 28.99025 70.05233 34894 ft 474 kts 25°
2026-04-25 17:58 29.04801 70.08876 34885 ft 473 kts 25°
2026-04-25 17:59 29.10353 70.12378 34884 ft 473 kts 25°
2026-04-25 17:59 29.16042 70.15969 34887 ft 473 kts 25°
2026-04-25 18:00 29.21625 70.19498 34881 ft 474 kts 25°
2026-04-25 18:00 29.27402 70.23163 34880 ft 474 kts 25°
2026-04-25 18:01 29.33192 70.26844 34880 ft 474 kts 25°
2026-04-25 18:01 29.38958 70.30506 34878 ft 474 kts 25°
2026-04-25 18:02 29.44725 70.34168 34875 ft 474 kts 25°
2026-04-25 18:02 29.50495 70.37843 34876 ft 475 kts 24°
2026-04-25 18:03 29.56294 70.41548 34870 ft 476 kts 24°
2026-04-25 18:03 29.62076 70.45237 34861 ft 476 kts 24°
2026-04-25 18:04 29.67893 70.48949 34857 ft 477 kts 24°
2026-04-25 18:04 29.73683 70.52648 34856 ft 477 kts 24°
2026-04-25 18:05 29.79440 70.56343 34864 ft 477 kts 24°
2026-04-25 18:05 29.85226 70.60056 34865 ft 477 kts 24°
2026-04-25 18:06 29.91011 70.63774 34858 ft 476 kts 24°
2026-04-25 18:06 29.96816 70.67513 34862 ft 476 kts 24°
2026-04-25 18:07 30.02596 70.71231 34862 ft 476 kts 24°
2026-04-25 18:07 30.08373 70.74958 34877 ft 476 kts 24°
2026-04-25 18:08 30.14185 70.78713 34869 ft 477 kts 24°
2026-04-25 18:08 30.19943 70.82440 34862 ft 478 kts 24°
2026-04-25 18:09 30.25764 70.86215 34862 ft 478 kts 24°
2026-04-25 18:09 30.31563 70.89974 34860 ft 478 kts 24°
2026-04-25 18:10 30.37382 70.93762 34872 ft 478 kts 24°
2026-04-25 18:10 30.43153 70.97514 34853 ft 479 kts 24°
2026-04-25 18:11 30.48965 71.01295 34849 ft 480 kts 24°
2026-04-25 18:11 30.54785 71.05092 34848 ft 480 kts 24°
2026-04-25 18:12 30.60630 71.08913 34853 ft 481 kts 24°
2026-04-25 18:12 30.66448 71.12734 34857 ft 481 kts 24°
2026-04-25 18:13 30.72276 71.16550 34879 ft 481 kts 24°
2026-04-25 18:13 30.78130 71.20386 34873 ft 481 kts 24°
2026-04-25 18:14 30.86882 71.26139 34872 ft 482 kts 24°
2026-04-25 18:14 30.92677 71.29953 34872 ft 482 kts 24°
2026-04-25 18:15 30.98499 71.33798 34896 ft 482 kts 24°
2026-04-25 18:15 31.04379 71.37686 34896 ft 481 kts 24°
2026-04-25 18:16 31.10164 71.41514 34889 ft 481 kts 23°
2026-04-25 18:17 31.18906 71.47293 34884 ft 481 kts 24°
2026-04-25 18:17 31.24723 71.51157 34882 ft 481 kts 24°
2026-04-25 18:18 31.30537 71.55030 34896 ft 481 kts 23°
2026-04-25 18:18 31.36352 71.58901 34885 ft 481 kts 24°
2026-04-25 18:19 31.42166 71.62773 34889 ft 481 kts 24°
2026-04-25 18:19 31.47988 71.66656 34889 ft 481 kts 24°
2026-04-25 18:20 31.53810 71.70538 34892 ft 481 kts 24°
2026-04-25 18:20 31.59618 71.74427 34899 ft 482 kts 23°
2026-04-25 18:21 31.65406 71.78300 34891 ft 482 kts 23°
2026-04-25 18:21 31.71229 71.82205 34889 ft 483 kts 23°
2026-04-25 18:22 31.77113 71.86164 34892 ft 483 kts 23°
2026-04-25 18:22 31.82907 71.90070 34891 ft 483 kts 23°
2026-04-25 18:23 31.88734 71.94006 34898 ft 484 kts 24°
2026-04-25 18:23 31.94569 71.97948 34889 ft 484 kts 24°
2026-04-25 18:24 32.00414 72.01899 34890 ft 485 kts 24°
2026-04-25 18:24 32.06283 72.05877 34899 ft 485 kts 24°
2026-04-25 18:25 32.12127 72.09844 34898 ft 485 kts 24°
2026-04-25 18:25 32.17976 72.13811 34911 ft 486 kts 24°
2026-04-25 18:26 32.23833 72.17788 34916 ft 486 kts 24°
2026-04-25 18:26 32.29712 72.21792 34914 ft 486 kts 24°
2026-04-25 18:27 32.35532 72.25767 34935 ft 486 kts 24°
2026-04-25 18:27 32.41412 72.29793 34934 ft 486 kts 24°
2026-04-25 18:28 32.47292 72.33814 34959 ft 486 kts 24°
2026-04-25 18:28 32.53135 72.37821 34953 ft 486 kts 24°
2026-04-25 18:29 32.61881 72.43819 34948 ft 486 kts 24°
2026-04-25 18:30 32.73550 72.51858 34958 ft 485 kts 24°
2026-04-25 18:30 32.79380 72.55883 34969 ft 485 kts 24°
2026-04-25 18:31 32.85239 72.59935 34969 ft 485 kts 24°
2026-04-25 18:31 32.91041 72.63944 34978 ft 486 kts 24°
2026-04-25 18:32 32.96938 72.68034 34970 ft 486 kts 24°
2026-04-25 18:32 33.02779 72.72096 34991 ft 486 kts 24°
2026-04-25 18:33 33.08364 72.75994 34958 ft 470 kts 24°
2026-04-25 18:33 33.13806 72.79791 34966 ft 472 kts 24°
2026-04-25 18:34 33.19459 72.83719 34962 ft 480 kts 24°
2026-04-25 18:34 33.25269 72.87763 34964 ft 485 kts 24°
2026-04-25 18:35 33.31092 72.91839 34966 ft 485 kts 24°
2026-04-25 18:35 33.36919 72.95926 34973 ft 485 kts 24°
2026-04-25 18:36 33.42745 73.00017 34967 ft 485 kts 24°
2026-04-25 18:36 33.48574 73.04115 34980 ft 486 kts 24°
2026-04-25 18:37 33.54399 73.08215 34977 ft 486 kts 24°
2026-04-25 18:37 33.60295 73.12125 35006 ft 479 kts 16°
2026-04-25 18:38 33.66588 73.14384 35000 ft 470 kts
2026-04-25 18:38 33.72946 73.16271 35007 ft 471 kts
2026-04-25 18:39 33.79306 73.18183 35014 ft 471 kts
2026-04-25 18:39 33.85662 73.20100 35036 ft 471 kts
2026-04-25 18:40 33.92029 73.22013 35037 ft 471 kts
2026-04-25 18:40 33.98381 73.23929 35057 ft 470 kts
2026-04-25 18:41 34.04738 73.25853 35058 ft 471 kts
2026-04-25 18:41 34.11094 73.27780 35095 ft 471 kts
2026-04-25 18:42 34.15307 73.29059 35076 ft 470 kts
2026-04-25 18:42 34.23765 73.31623 35070 ft 471 kts
2026-04-25 18:43 34.30126 73.33545 35086 ft 471 kts
2026-04-25 18:43 34.36487 73.35483 35108 ft 471 kts
2026-04-25 18:44 34.42848 73.37420 35163 ft 471 kts
2026-04-25 18:44 34.49200 73.39352 35159 ft 471 kts
2026-04-25 18:45 34.54483 73.40962 35184 ft 471 kts
2026-04-25 18:45 34.61911 73.43227 35245 ft 471 kts
2026-04-25 18:46 34.67202 73.44847 35041 ft 473 kts
2026-04-25 18:46 34.70393 73.45826 34813 ft 472 kts
2026-04-25 18:46 34.73589 73.46812 34606 ft 472 kts
2026-04-25 18:47 34.76745 73.48022 34372 ft 482 kts 13°
2026-04-25 18:47 34.79776 73.49860 34119 ft 493 kts 23°
2026-04-25 18:47 34.82596 73.52301 33921 ft 501 kts 30°
2026-04-25 18:47 34.85358 73.54908 33655 ft 503 kts 30°
2026-04-25 18:48 34.88144 73.57520 33402 ft 505 kts 30°
2026-04-25 18:48 34.90894 73.60097 33149 ft 506 kts 30°
2026-04-25 18:48 34.93698 73.62728 32909 ft 510 kts 30°
2026-04-25 18:48 34.96501 73.65367 32668 ft 509 kts 30°
2026-04-25 18:49 34.99305 73.68011 32414 ft 508 kts 31°
2026-04-25 18:49 35.02095 73.70642 32170 ft 508 kts 31°
2026-04-25 18:49 35.04890 73.73278 31904 ft 508 kts 31°
2026-04-25 18:49 35.07690 73.75927 31664 ft 508 kts 31°
2026-04-25 18:50 35.10481 73.78574 31422 ft 509 kts 31°
2026-04-25 18:50 35.13281 73.81231 31179 ft 509 kts 31°
2026-04-25 18:50 35.16081 73.83886 30943 ft 509 kts 31°
2026-04-25 18:50 35.18878 73.86537 30708 ft 509 kts 32°
2026-04-25 18:51 35.21677 73.89195 30476 ft 509 kts 32°
2026-04-25 18:51 35.23528 73.90953 30307 ft 508 kts 32°
2026-04-25 18:51 35.27257 73.94504 29924 ft 507 kts 32°
2026-04-25 18:51 35.30039 73.97159 29661 ft 507 kts 33°
2026-04-25 18:52 35.32825 73.99820 29396 ft 508 kts 33°
2026-04-25 18:52 35.35615 74.02487 29117 ft 508 kts 33°
2026-04-25 18:52 35.38404 74.05159 28831 ft 510 kts 35°
2026-04-25 18:52 35.40968 74.08205 28571 ft 516 kts 46°
2026-04-25 18:53 35.43059 74.11718 28315 ft 520 kts 56°
2026-04-25 18:53 35.44765 74.15643 28057 ft 521 kts 60°
2026-04-25 18:53 35.46426 74.19607 27800 ft 522 kts 60°
2026-04-25 18:53 35.48091 74.23567 27548 ft 522 kts 60°
2026-04-25 18:54 35.51422 74.31479 27021 ft 521 kts 60°
2026-04-25 18:54 35.53084 74.35431 26771 ft 521 kts 60°
2026-04-25 18:54 35.54743 74.39387 26540 ft 521 kts 61°
2026-04-25 18:55 35.56402 74.43345 26295 ft 521 kts 61°
2026-04-25 18:55 35.58055 74.47301 26055 ft 521 kts 61°
2026-04-25 18:55 35.59705 74.51258 25826 ft 520 kts 62°
2026-04-25 18:55 35.61353 74.55218 25586 ft 521 kts 62°
2026-04-25 18:56 35.62996 74.59172 25363 ft 514 kts 62°
2026-04-25 18:56 35.64611 74.62976 25280 ft 491 kts 60°
2026-04-25 18:56 35.66215 74.66582 25330 ft 470 kts 59°
2026-04-25 18:56 35.67786 74.70030 25324 ft 453 kts 61°
2026-04-25 18:57 35.69030 74.73515 25322 ft 436 kts 71°
2026-04-25 18:57 35.69785 74.77005 25325 ft 421 kts 80°
2026-04-25 18:57 35.70087 74.80520 25243 ft 407 kts 90°
2026-04-25 18:57 35.70047 74.82856 25122 ft 400 kts 96°
2026-04-25 18:58 35.69460 74.87271 24752 ft 391 kts 107°
2026-04-25 18:58 35.67931 74.93618 24093 ft 384 kts 109°
2026-04-25 18:58 35.67173 74.96752 23806 ft 381 kts 109°
2026-04-25 18:59 35.65684 75.02945 22912 ft 375 kts 109°
2026-04-25 18:59 35.64214 75.09042 22226 ft 369 kts 109°
2026-04-25 19:00 35.62761 75.15039 21833 ft 364 kts 109°
2026-04-25 19:00 35.62031 75.18025 21843 ft 365 kts 109°
2026-04-25 19:01 35.60566 75.24007 21849 ft 365 kts 109°
2026-04-25 19:01 35.59846 75.26949 21845 ft 353 kts 109°
2026-04-25 19:01 35.59112 75.29758 21842 ft 338 kts 115°
2026-04-25 19:01 35.58049 75.32293 21494 ft 333 kts 127°
2026-04-25 19:02 35.54890 75.36201 20616 ft 319 kts 149°
2026-04-25 19:02 35.53032 75.37771 20183 ft 322 kts 148°
2026-04-25 19:02 35.51210 75.39328 19761 ft 324 kts 147°
2026-04-25 19:03 35.48100 75.42006 19063 ft 328 kts 147°
2026-04-25 19:03 35.45613 75.44150 18496 ft 331 kts 147°
2026-04-25 19:03 35.43747 75.45757 17968 ft 324 kts 147°
2026-04-25 19:04 35.40125 75.48873 16945 ft 312 kts 147°
2026-04-25 19:04 35.38361 75.50377 16432 ft 307 kts 147°
2026-04-25 19:05 35.34955 75.53267 15815 ft 285 kts 147°
2026-04-25 19:05 35.32031 75.56053 15639 ft 253 kts 131°
2026-04-25 19:05 35.31097 75.57777 15553 ft 235 kts 116°
2026-04-25 19:06 35.30580 75.59604 15404 ft 221 kts 105°
2026-04-25 19:06 35.30186 75.63243 14814 ft 214 kts 92°
2026-04-25 19:06 35.30252 75.65058 14565 ft 212 kts 87°
2026-04-25 19:07 35.30541 75.68633 14038 ft 209 kts 85°
2026-04-25 19:07 35.30715 75.70395 13744 ft 208 kts 84°
2026-04-25 19:08 35.32163 75.73262 13200 ft 207 kts 29°
2026-04-25 19:08 35.33514 75.73753 12972 ft 203 kts
2026-04-25 19:09 35.36048 75.70619 12138 ft 193 kts 267°
2026-04-25 19:09 35.35976 75.69537 11912 ft 192 kts 260°
2026-04-25 19:09 35.35346 75.65767 11165 ft 193 kts 257°
2026-04-25 19:10 35.35052 75.64169 10867 ft 192 kts 257°
2026-04-25 19:10 35.34756 75.62572 10575 ft 191 kts 257°
2026-04-25 19:10 35.34462 75.60984 10312 ft 191 kts 257°
2026-04-25 19:10 35.34250 75.59381 10017 ft 191 kts 268°
2026-04-25 19:11 35.34348 75.57769 9743 ft 188 kts 279°
2026-04-25 19:11 35.34591 75.56268 9623 ft 172 kts 287°
2026-04-25 19:11 35.35217 75.55065 9627 ft 167 kts 317°
2026-04-25 19:11 35.36127 75.54231 9630 ft 165 kts 329°
2026-04-25 19:12 35.37127 75.53549 9632 ft 164 kts 332°
2026-04-25 19:12 35.38142 75.52909 9624 ft 164 kts 338°
2026-04-25 19:12 35.39256 75.52622 9625 ft 165 kts 355°
2026-04-25 19:12 35.40372 75.52349 9623 ft 166 kts 331°
2026-04-25 19:13 35.41101 75.51301 9444 ft 164 kts 288°
2026-04-25 19:13 35.41038 75.49950 9258 ft 162 kts 242°
2026-04-25 19:13 35.40252 75.49041 9044 ft 161 kts 184°
2026-04-25 19:13 35.39255 75.49541 8535 ft 164 kts 134°
2026-04-25 19:14 35.38347 75.50365 8232 ft 158 kts 154°
2026-04-25 19:14 35.38020 75.50591 8174 ft 160 kts 148°
2026-04-25 19:14 35.36476 75.51823 7727 ft 159 kts 146°
2026-04-25 19:14 35.35555 75.52560 7501 ft 158 kts 147°
2026-04-25 19:15 35.34646 75.53273 7398 ft 146 kts 146°
2026-04-25 19:15 35.33886 75.53883 7380 ft 116 kts 147°
2026-04-25 19:15 35.33358 75.54304 7384 ft 38 kts 147°
2026-04-25 19:15 35.33248 75.54342 7384 ft 13 kts 223°
2026-04-25 19:16 35.33194 75.54241 7384 ft 16 kts 236°
2026-04-25 19:16 35.33146 75.54155 7384 ft 8 kts 236°
2026-04-25 19:16 35.33118 75.54119 7383 ft 5 kts 195°
2026-04-25 19:16 35.33095 75.54131 7382 ft 3 kts 151°
2026-04-25 19:17 35.33088 75.54136 7382 ft 0 kts 148°